QPF
0.00 0.00 0.00 0.00 0.00 0.00 0.00 0.00 0.00 0.01 0.02 0.03 0.03 0.01 0.00 0.00 0.00 0.00 0.01 0.02 0.02 0.03 0.03 0.02 0.01 0.00 0.00 0.00 0.00 0.00 0.00 0.00 0.00 0.00 0.00 0.00 0.00 0.00 0.00 0.00 0.00 0.00 0.00
0.00 0.00 0.00 0.00 0.00 0.00 0.00 0.00 0.00 0.01 0.02 0.02 0.02 0.01 0.00 0.00 0.00 0.01 0.02 0.02 0.03 0.03 0.02 0.01 0.00 0.00 0.00 0.00 0.00 0.00 0.00 0.00 0.00 0.00 0.00 0.00 0.00 0.00 0.00 0.00 0.00 0.00 0.01
0.00 0.00 0.00 0.00 0.00 0.00 0.00 0.00 0.00 0.01 0.01 0.01 0.01 0.00 0.00 0.00 0.01 0.01 0.02 0.03 0.02 0.02 0.01 0.00 0.00 0.00 0.00 0.00 0.00 0.00 0.00 0.00 0.00 0.00 0.00 0.00 0.00 0.00 0.00 0.00 0.00 0.00 0.00
0.00 0.00 0.00 0.00 0.00 0.00 0.00 0.00 0.00 0.01 0.01 0.00 0.00 0.00 0.00 0.00 0.01 0.02 0.03 0.02 0.01 0.01 0.00 0.00 0.00 0.00 0.00 0.00 0.00 0.00 0.00 0.00 0.00 0.00 0.00 0.00 0.00 0.00 0.00 0.01 0.01 0.01 0.01
0.00 0.00 0.00 0.00 0.00 0.00 0.00 0.00 0.01 0.01 0.00 0.00 0.00 0.00 0.00 0.00 0.01 0.02 0.01 0.01 0.00 0.00 0.00 0.00 0.00 0.00 0.00 0.00 0.00 0.00 0.00 0.00 0.00 0.00 0.00 0.00 0.00 0.01 0.01 0.01 0.01 0.02 0.02
0.00 0.00 0.00 0.00 0.00 0.00 0.00 0.00 0.00 0.00 0.00 0.00 0.00 0.00 0.00 0.00 0.01 0.01 0.00 0.00 0.00 0.00 0.00 0.00 0.00 0.00 0.00 0.00 0.00 0.00 0.00 0.00 0.00 0.00 0.00 0.00 0.00 0.01 0.01 0.01 0.02 0.02 0.02
0.00 0.00 0.00 0.00 0.00 0.00 0.00 0.00 0.00 0.00 0.00 0.00 0.00 0.00 0.00 0.00 0.00 0.00 0.00 0.00 0.00 0.00 0.00 0.00 0.00 0.00 0.00 0.00 0.00 0.00 0.00 0.00 0.00 0.00 0.00 0.00 0.01 0.01 0.01 0.02 0.02 0.02 0.02
0.00 0.00 0.00 0.00 0.00 0.00 0.00 0.00 0.00 0.00 0.00 0.00 0.00 0.00 0.00 0.00 0.00 0.00 0.00 0.00 0.00 0.00 0.00 0.00 0.00 0.00 0.00 0.00 0.00 0.00 0.00 0.00 0.00 0.00 0.00 0.00 0.01 0.01 0.02 0.01 0.01 0.01 0.01
0.00 0.00 0.00 0.00 0.00 0.00 0.00 0.00 0.00 0.00 0.00 0.00 0.00 0.00 0.00 0.00 0.00 0.00 0.00 0.00 0.00 0.00 0.00 0.00 0.00 0.00 0.00 0.00 0.00 0.00 0.00 0.00 0.00 0.00 0.00 0.00 0.01 0.01 0.01 0.01 0.00 0.00 0.00
0.00 0.00 0.00 0.00 0.00 0.00 0.00 0.00 0.00 0.00 0.00 0.00 0.00 0.00 0.00 0.00 0.00 0.00 0.00 0.00 0.00 0.00 0.00 0.00 0.00 0.00 0.00 0.00 0.00 0.00 0.00 0.00 0.00 0.00 0.00 0.00 0.01 0.01 0.01 0.00 0.00 0.00 0.00
0.00 0.00 0.00 0.00 0.00 0.00 0.00 0.00 0.00 0.00 0.00 0.00 0.00 0.00 0.00 0.00 0.00 0.00 0.00 0.00 0.00 0.00 0.00 0.00 0.00 0.00 0.00 0.00 0.00 0.00 0.00 0.00 0.00 0.00 0.00 0.00 0.00 0.01 0.00 0.00 0.00 0.00 0.00
0.00 0.00 0.00 0.00 0.00 0.00 0.00 0.00 0.00 0.00 0.00 0.00 0.00 0.00 0.00 0.00 0.00 0.00 0.00 0.00 0.00 0.00 0.00 0.00 0.00 0.00 0.00 0.00 0.00 0.00 0.00 0.00 0.00 0.00 0.00 0.00 0.00 0.00 0.00 0.00 0.00 0.00 0.00
0.00 0.00 0.00 0.00 0.00 0.00 0.00 0.00 0.00 0.00 0.00 0.00 0.00 0.00 0.00 0.00 0.00 0.00 0.00 0.00 0.00 0.00 0.00 0.00 0.00 0.00 0.00 0.00 0.00 0.00 0.00 0.00 0.00 0.00 0.00 0.00 0.00 0.00 0.00 0.00 0.00 0.00 0.00
0.00 0.00 0.00 0.00 0.00 0.00 0.00 0.00 0.00 0.00 0.00 0.00 0.00 0.00 0.00 0.00 0.00 0.00 0.00 0.00 0.00 0.00 0.00 0.00 0.00 0.00 0.00 0.00 0.00 0.00 0.00 0.00 0.00 0.00 0.00 0.00 0.00 0.00 0.00 0.00 0.00 0.00 0.00
0.00 0.00 0.00 0.00 0.00 0.00 0.00 0.00 0.00 0.00 0.00 0.00 0.00 0.00 0.00 0.00 0.00 0.00 0.00 0.00 0.00 0.00 0.00 0.00 0.00 0.00 0.00 0.00 0.00 0.00 0.00 0.00 0.00 0.00 0.00 0.00 0.00 0.00 0.00 0.00 0.00 0.00 0.00
0.00 0.00 0.00 0.00 0.00 0.00 0.00 0.00 0.00 0.00 0.00 0.00 0.00 0.00 0.00 0.00 0.00 0.00 0.00 0.00 0.00 0.00 0.00 0.00 0.00 0.00 0.00 0.00 0.00 0.00 0.00 0.00 0.00 0.00 0.00 0.00 0.00 0.00 0.00 0.00 0.00 0.00 0.00
0.00 0.00 0.00 0.00 0.00 0.00 0.00 0.00 0.00 0.00 0.00 0.00 0.00 0.00 0.00 0.00 0.00 0.00 0.00 0.00 0.00 0.00 0.00 0.00 0.00 0.00 0.00 0.00 0.00 0.00 0.00 0.00 0.00 0.00 0.00 0.00 0.00 0.00 0.00 0.00 0.00 0.00 0.00
0.00 0.00 0.00 0.00 0.00 0.00 0.00 0.00 0.00 0.00 0.00 0.00 0.00 0.00 0.00 0.00 0.00 0.00 0.00 0.00 0.00 0.00 0.00 0.00 0.00 0.00 0.00 0.00 0.00 0.00 0.00 0.00 0.00 0.00 0.00 0.00 0.00 0.00 0.00 0.00 0.00 0.00 0.00
0.00 0.00 0.00 0.00 0.00 0.00 0.01 0.01 0.01 0.01 0.01 0.01 0.01 0.01 0.01 0.01 0.01 0.00 0.00 0.00 0.00 0.00 0.00 0.00 0.00 0.00 0.00 0.00 0.00 0.00 0.00 0.00 0.00 0.00 0.00 0.00 0.00 0.00 0.00 0.00 0.00 0.00 0.00
0.00 0.00 0.00 0.00 0.00 0.00 0.00 0.01 0.01 0.01 0.01 0.02 0.01 0.01 0.02 0.02 0.02 0.01 0.01 0.00 0.00 0.00 0.00 0.00 0.00 0.00 0.00 0.01 0.00 0.00 0.00 0.00 0.00 0.00 0.00 0.00 0.00 0.00 0.00 0.00 0.00 0.00 0.00
0.00 0.00 0.00 0.00 0.00 0.00 0.00 0.00 0.01 0.01 0.01 0.01 0.01 0.01 0.02 0.02 0.02 0.02 0.01 0.01 0.01 0.01 0.01 0.01 0.01 0.01 0.01 0.01 0.01 0.00 0.00 0.00 0.00 0.00 0.00 0.00 0.00 0.00 0.00 0.00 0.00 0.00 0.00
0.00 0.00 0.00 0.00 0.00 0.00 0.00 0.00 0.00 0.00 0.01 0.01 0.01 0.01 0.02 0.02 0.02 0.02 0.02 0.02 0.02 0.02 0.02 0.03 0.03 0.03 0.03 0.03 0.02 0.01 0.00 0.00 0.00 0.00 0.00 0.00 0.00 0.00 0.00 0.00 0.00 0.00 0.00
0.00 0.00 0.00 0.00 0.00 0.00 0.00 0.00 0.00 0.01 0.00 0.00 0.00 0.00 0.01 0.01 0.02 0.03 0.03 0.03 0.03 0.04 0.04 0.04 0.05 0.06 0.05 0.05 0.05 0.04 0.02 0.00 0.00 0.00 0.00 0.00 0.00 0.00 0.00 0.01 0.01 0.01 0.00
0.00 0.00 0.00 0.00 0.00 0.00 0.00 0.00 0.00 0.00 0.00 0.00 0.00 0.00 0.00 0.01 0.01 0.01 0.02 0.03 0.04 0.05 0.05 0.06 0.07 0.08 0.08 0.07 0.07 0.05 0.04 0.02 0.01 0.01 0.00 0.01 0.01 0.01 0.01 0.01 0.01 0.01 0.01
0.00 0.00 0.00 0.00 0.00 0.00 0.00 0.00 0.00 0.00 0.00 0.00 0.00 0.00 0.00 0.00 0.01 0.01 0.01 0.02 0.03 0.04 0.05 0.08 0.10 0.11 0.10 0.10 0.09 0.08 0.09 0.06 0.03 0.02 0.02 0.02 0.03 0.03 0.03 0.02 0.01 0.01 0.01
0.00 0.00 0.00 0.00 0.00 0.00 0.00 0.00 0.00 0.00 0.00 0.00 0.00 0.00 0.00 0.00 0.00 0.01 0.01 0.02 0.02 0.03 0.05 0.07 0.11 0.12 0.13 0.12 0.12 0.10 0.12 0.11 0.08 0.07 0.06 0.05 0.05 0.05 0.04 0.03 0.02 0.02 0.02
MSLP
1015.87 1015.67 1015.59 1015.68 1015.91 1016.23 1016.59 1016.93 1017.19 1017.37 1017.48 1017.55 1017.63 1017.74 1017.90 1018.10 1018.31 1018.51 1018.66 1018.75 1018.80 1018.81 1018.82 1018.84 1018.90 1018.99 1019.09 1019.20 1019.30 1019.36 1019.41 1019.44 1019.46 1019.48 1019.51 1019.53 1019.53 1019.50 1019.42 1019.31 1019.18 1019.04 1018.92
1015.63 1015.49 1015.49 1015.65 1015.95 1016.33 1016.72 1017.07 1017.34 1017.51 1017.62 1017.70 1017.79 1017.93 1018.13 1018.36 1018.61 1018.83 1019.00 1019.10 1019.15 1019.18 1019.21 1019.26 1019.34 1019.46 1019.58 1019.69 1019.77 1019.81 1019.81 1019.80 1019.78 1019.77 1019.77 1019.78 1019.78 1019.75 1019.67 1019.56 1019.42 1019.28 1019.15
1015.34 1015.26 1015.33 1015.56 1015.94 1016.38 1016.82 1017.20 1017.49 1017.68 1017.79 1017.88 1018.00 1018.17 1018.39 1018.65 1018.91 1019.14 1019.31 1019.41 1019.46 1019.48 1019.51 1019.57 1019.67 1019.80 1019.93 1020.04 1020.11 1020.13 1020.11 1020.06 1020.02 1019.99 1019.98 1019.99 1019.99 1019.96 1019.90 1019.80 1019.67 1019.53 1019.41
1015.07 1015.05 1015.18 1015.48 1015.91 1016.42 1016.91 1017.33 1017.64 1017.84 1017.98 1018.08 1018.22 1018.40 1018.64 1018.91 1019.18 1019.40 1019.56 1019.65 1019.68 1019.70 1019.72 1019.78 1019.88 1020.01 1020.14 1020.25 1020.31 1020.32 1020.28 1020.23 1020.17 1020.14 1020.13 1020.14 1020.15 1020.14 1020.09 1020.01 1019.89 1019.77 1019.66
1014.90 1014.91 1015.09 1015.45 1015.93 1016.47 1016.99 1017.44 1017.77 1017.99 1018.14 1018.26 1018.41 1018.60 1018.85 1019.12 1019.39 1019.60 1019.74 1019.81 1019.83 1019.83 1019.84 1019.89 1019.99 1020.11 1020.24 1020.34 1020.40 1020.41 1020.38 1020.32 1020.27 1020.24 1020.24 1020.26 1020.28 1020.28 1020.25 1020.18 1020.09 1019.99 1019.90
1014.88 1014.93 1015.14 1015.51 1016.01 1016.57 1017.10 1017.55 1017.88 1018.11 1018.27 1018.40 1018.56 1018.76 1019.01 1019.28 1019.54 1019.74 1019.87 1019.93 1019.94 1019.92 1019.93 1019.97 1020.05 1020.17 1020.29 1020.39 1020.45 1020.46 1020.43 1020.39 1020.35 1020.33 1020.33 1020.36 1020.39 1020.40 1020.38 1020.33 1020.26 1020.19 1020.12
1015.05 1015.12 1015.33 1015.71 1016.19 1016.72 1017.23 1017.66 1017.99 1018.21 1018.37 1018.51 1018.67 1018.88 1019.14 1019.41 1019.66 1019.86 1019.99 1020.04 1020.05 1020.03 1020.03 1020.07 1020.14 1020.25 1020.36 1020.45 1020.51 1020.53 1020.51 1020.47 1020.44 1020.43 1020.44 1020.47 1020.51 1020.52 1020.51 1020.48 1020.43 1020.37 1020.33
1015.39 1015.46 1015.67 1016.01 1016.45 1016.94 1017.40 1017.79 1018.08 1018.29 1018.45 1018.60 1018.77 1019.00 1019.26 1019.54 1019.79 1020.00 1020.13 1020.19 1020.20 1020.19 1020.20 1020.23 1020.30 1020.40 1020.50 1020.58 1020.63 1020.64 1020.62 1020.60 1020.57 1020.57 1020.59 1020.62 1020.65 1020.67 1020.67 1020.64 1020.61 1020.57 1020.55
1015.82 1015.90 1016.08 1016.38 1016.77 1017.19 1017.59 1017.92 1018.19 1018.38 1018.54 1018.70 1018.89 1019.13 1019.40 1019.69 1019.95 1020.17 1020.31 1020.38 1020.41 1020.42 1020.43 1020.47 1020.54 1020.63 1020.71 1020.78 1020.82 1020.82 1020.80 1020.77 1020.75 1020.75 1020.77 1020.80 1020.83 1020.86 1020.86 1020.84 1020.82 1020.80 1020.80
1016.26 1016.34 1016.51 1016.76 1017.08 1017.43 1017.76 1018.05 1018.28 1018.47 1018.63 1018.81 1019.03 1019.29 1019.58 1019.87 1020.14 1020.36 1020.51 1020.60 1020.65 1020.68 1020.71 1020.76 1020.83 1020.91 1020.98 1021.03 1021.05 1021.04 1021.01 1020.97 1020.95 1020.94 1020.96 1020.99 1021.03 1021.06 1021.08 1021.08 1021.07 1021.07 1021.08
1016.61 1016.70 1016.86 1017.08 1017.35 1017.63 1017.90 1018.15 1018.36 1018.54 1018.73 1018.93 1019.18 1019.45 1019.75 1020.05 1020.32 1020.54 1020.70 1020.80 1020.87 1020.91 1020.96 1021.02 1021.10 1021.17 1021.23 1021.27 1021.27 1021.25 1021.20 1021.15 1021.12 1021.12 1021.13 1021.17 1021.22 1021.26 1021.29 1021.31 1021.33 1021.35 1021.37
1016.81 1016.93 1017.08 1017.28 1017.50 1017.74 1017.96 1018.18 1018.38 1018.58 1018.79 1019.02 1019.29 1019.59 1019.89 1020.18 1020.44 1020.65 1020.81 1020.92 1020.99 1021.06 1021.12 1021.20 1021.28 1021.36 1021.42 1021.44 1021.43 1021.40 1021.34 1021.28 1021.24 1021.23 1021.25 1021.29 1021.35 1021.42 1021.47 1021.52 1021.56 1021.61 1021.65
1016.83 1016.99 1017.15 1017.33 1017.52 1017.72 1017.92 1018.12 1018.32 1018.54 1018.78 1019.04 1019.33 1019.63 1019.93 1020.21 1020.45 1020.65 1020.79 1020.90 1020.98 1021.06 1021.15 1021.24 1021.33 1021.42 1021.48 1021.51 1021.49 1021.45 1021.39 1021.33 1021.28 1021.27 1021.29 1021.34 1021.41 1021.50 1021.58 1021.67 1021.74 1021.82 1021.89
1016.71 1016.89 1017.07 1017.24 1017.41 1017.58 1017.76 1017.95 1018.17 1018.40 1018.66 1018.95 1019.25 1019.55 1019.84 1020.10 1020.31 1020.49 1020.62 1020.72 1020.81 1020.90 1021.00 1021.12 1021.23 1021.33 1021.41 1021.44 1021.44 1021.41 1021.35 1021.29 1021.24 1021.22 1021.24 1021.30 1021.38 1021.49 1021.60 1021.72 1021.83 1021.94 1022.04
1016.49 1016.69 1016.87 1017.03 1017.18 1017.34 1017.50 1017.69 1017.91 1018.15 1018.43 1018.73 1019.03 1019.32 1019.59 1019.82 1020.01 1020.17 1020.29 1020.39 1020.49 1020.60 1020.72 1020.86 1020.99 1021.12 1021.22 1021.28 1021.30 1021.28 1021.24 1021.19 1021.15 1021.13 1021.14 1021.19 1021.28 1021.39 1021.53 1021.68 1021.83 1021.97 1022.11
1016.25 1016.45 1016.62 1016.76 1016.89 1017.02 1017.17 1017.35 1017.57 1017.82 1018.10 1018.39 1018.68 1018.95 1019.19 1019.40 1019.57 1019.71 1019.83 1019.95 1020.06 1020.20 1020.34 1020.51 1020.67 1020.82 1020.95 1021.04 1021.10 1021.11 1021.10 1021.07 1021.04 1021.02 1021.02 1021.06 1021.14 1021.25 1021.39 1021.56 1021.74 1021.91 1022.07
1016.05 1016.22 1016.36 1016.47 1016.57 1016.69 1016.83 1017.00 1017.21 1017.46 1017.72 1017.99 1018.25 1018.49 1018.70 1018.88 1019.04 1019.18 1019.31 1019.45 1019.59 1019.75 1019.93 1020.12 1020.31 1020.49 1020.66 1020.79 1020.88 1020.94 1020.97 1020.96 1020.95 1020.93 1020.92 1020.94 1020.99 1021.09 1021.22 1021.39 1021.58 1021.78 1021.97
1015.92 1016.05 1016.15 1016.22 1016.30 1016.39 1016.52 1016.69 1016.89 1017.11 1017.34 1017.57 1017.79 1017.99 1018.17 1018.33 1018.48 1018.62 1018.78 1018.94 1019.12 1019.31 1019.52 1019.73 1019.95 1020.16 1020.36 1020.53 1020.67 1020.78 1020.85 1020.88 1020.88 1020.87 1020.85 1020.85 1020.87 1020.93 1021.04 1021.19 1021.39 1021.60 1021.82
1015.87 1015.95 1016.00 1016.04 1016.10 1016.18 1016.30 1016.46 1016.64 1016.84 1017.03 1017.21 1017.37 1017.51 1017.64 1017.78 1017.92 1018.07 1018.25 1018.44 1018.66 1018.88 1019.12 1019.35 1019.59 1019.83 1020.05 1020.26 1020.45 1020.61 1020.73 1020.80 1020.83 1020.83 1020.80 1020.77 1020.76 1020.78 1020.86 1020.99 1021.17 1021.39 1021.63
1015.90 1015.92 1015.93 1015.94 1015.98 1016.07 1016.19 1016.35 1016.51 1016.68 1016.82 1016.93 1017.02 1017.10 1017.17 1017.26 1017.39 1017.54 1017.73 1017.95 1018.19 1018.44 1018.70 1018.95 1019.20 1019.45 1019.70 1019.94 1020.17 1020.38 1020.55 1020.67 1020.73 1020.75 1020.72 1020.67 1020.63 1020.63 1020.67 1020.77 1020.93 1021.15 1021.40
1015.97 1015.95 1015.92 1015.92 1015.97 1016.06 1016.20 1016.36 1016.51 1016.64 1016.72 1016.76 1016.77 1016.76 1016.76 1016.80 1016.89 1017.03 1017.22 1017.45 1017.70 1017.96 1018.22 1018.48 1018.73 1018.98 1019.25 1019.52 1019.79 1020.04 1020.26 1020.43 1020.53 1020.57 1020.55 1020.51 1020.45 1020.41 1020.43 1020.51 1020.66 1020.87 1021.12
1016.07 1016.02 1015.98 1015.98 1016.04 1016.16 1016.31 1016.47 1016.61 1016.70 1016.72 1016.68 1016.60 1016.50 1016.42 1016.38 1016.41 1016.52 1016.69 1016.91 1017.15 1017.40 1017.65 1017.90 1018.14 1018.39 1018.66 1018.95 1019.25 1019.54 1019.80 1020.02 1020.17 1020.24 1020.25 1020.21 1020.15 1020.11 1020.11 1020.18 1020.31 1020.52 1020.77
1016.18 1016.12 1016.09 1016.11 1016.19 1016.33 1016.50 1016.66 1016.79 1016.84 1016.80 1016.67 1016.50 1016.30 1016.13 1016.01 1015.97 1016.01 1016.14 1016.32 1016.54 1016.76 1016.99 1017.21 1017.44 1017.68 1017.95 1018.24 1018.56 1018.88 1019.18 1019.43 1019.63 1019.74 1019.78 1019.76 1019.72 1019.69 1019.69 1019.75 1019.89 1020.09 1020.35
1016.32 1016.28 1016.26 1016.30 1016.40 1016.55 1016.73 1016.89 1016.99 1017.00 1016.90 1016.71 1016.45 1016.16 1015.89 1015.69 1015.57 1015.54 1015.61 1015.73 1015.90 1016.08 1016.27 1016.47 1016.67 1016.89 1017.14 1017.44 1017.76 1018.09 1018.42 1018.70 1018.93 1019.07 1019.15 1019.17 1019.15 1019.15 1019.17 1019.24 1019.39 1019.59 1019.86
1016.51 1016.50 1016.50 1016.56 1016.67 1016.82 1016.99 1017.13 1017.20 1017.17 1017.02 1016.77 1016.44 1016.08 1015.74 1015.46 1015.26 1015.16 1015.15 1015.22 1015.32 1015.45 1015.60 1015.75 1015.92 1016.11 1016.35 1016.63 1016.95 1017.28 1017.61 1017.91 1018.15 1018.32 1018.43 1018.48 1018.50 1018.53 1018.58 1018.68 1018.84 1019.06 1019.33
1016.77 1016.80 1016.83 1016.88 1016.98 1017.11 1017.25 1017.36 1017.39 1017.32 1017.14 1016.84 1016.48 1016.08 1015.69 1015.35 1015.10 1014.93 1014.86 1014.85 1014.90 1014.97 1015.07 1015.18 1015.31 1015.48 1015.69 1015.94 1016.23 1016.55 1016.86 1017.15 1017.39 1017.58 1017.70 1017.78 1017.84 1017.90 1017.99 1018.11 1018.30 1018.53 1018.81
Thickness
5761 5763 5762 5760 5759 5757 5755 5754 5752 5751 5749 5747 5745 5744 5743 5742 5741 5741 5740 5739 5738 5737 5736 5735 5734 5733 5732 5731 5730 5728 5727 5725 5723 5722 5720 5719 5718 5717 5715 5714 5713 5713 5712
5764 5762 5760 5759 5757 5755 5753 5752 5750 5748 5746 5745 5743 5742 5740 5740 5739 5738 5738 5736 5735 5733 5732 5731 5730 5728 5727 5726 5724 5723 5721 5719 5718 5716 5715 5714 5713 5712 5710 5709 5709 5708 5707
5762 5759 5758 5757 5755 5753 5751 5750 5748 5746 5744 5742 5741 5739 5738 5737 5737 5736 5734 5733 5731 5729 5728 5727 5725 5724 5722 5721 5720 5718 5716 5714 5713 5712 5710 5710 5709 5707 5706 5705 5704 5704 5703
5759 5756 5755 5754 5752 5750 5749 5747 5745 5743 5741 5740 5738 5737 5736 5735 5734 5733 5731 5729 5727 5725 5723 5722 5720 5719 5718 5716 5715 5714 5712 5710 5709 5708 5706 5705 5704 5704 5703 5701 5700 5699 5699
5755 5753 5751 5751 5749 5748 5746 5745 5743 5741 5739 5737 5735 5734 5733 5732 5730 5729 5727 5725 5723 5721 5719 5717 5716 5715 5714 5712 5711 5709 5708 5707 5706 5704 5702 5701 5700 5699 5698 5697 5696 5695 5694
5750 5749 5748 5747 5746 5745 5744 5742 5740 5738 5736 5734 5732 5731 5729 5728 5726 5724 5722 5720 5718 5716 5714 5713 5712 5711 5710 5708 5707 5706 5704 5703 5701 5699 5698 5697 5695 5695 5693 5692 5691 5690 5689
5746 5745 5744 5743 5743 5742 5741 5739 5738 5736 5733 5731 5729 5728 5726 5724 5722 5720 5718 5715 5713 5711 5710 5709 5707 5706 5705 5704 5703 5701 5700 5699 5697 5695 5694 5693 5692 5690 5689 5687 5686 5684 5683
5742 5741 5740 5740 5739 5739 5738 5736 5735 5733 5731 5729 5726 5724 5722 5720 5718 5715 5713 5711 5709 5707 5706 5704 5703 5702 5701 5700 5699 5697 5695 5694 5692 5691 5689 5688 5687 5686 5684 5682 5680 5679 5677
5738 5737 5737 5737 5736 5735 5734 5733 5732 5730 5728 5726 5723 5721 5718 5716 5714 5711 5709 5707 5706 5704 5702 5700 5699 5698 5697 5696 5695 5693 5691 5689 5688 5686 5685 5684 5682 5681 5679 5677 5675 5674 5672
5733 5733 5733 5733 5732 5732 5731 5729 5728 5726 5724 5722 5720 5718 5715 5712 5710 5707 5705 5703 5702 5700 5698 5696 5695 5694 5693 5692 5690 5688 5687 5685 5684 5682 5680 5679 5678 5676 5673 5672 5670 5668 5667
5726 5727 5728 5729 5728 5728 5726 5725 5724 5722 5720 5718 5716 5714 5712 5709 5706 5703 5701 5699 5697 5695 5693 5692 5690 5689 5689 5687 5686 5684 5682 5681 5679 5678 5676 5675 5673 5671 5668 5666 5664 5663 5661
5718 5722 5724 5724 5724 5723 5722 5721 5720 5718 5716 5714 5712 5710 5708 5705 5703 5700 5698 5695 5693 5691 5689 5687 5686 5685 5684 5683 5681 5680 5678 5676 5674 5673 5671 5670 5668 5666 5663 5661 5659 5657 5655
5716 5718 5720 5720 5720 5719 5719 5718 5717 5715 5712 5710 5708 5706 5704 5701 5698 5696 5694 5692 5690 5688 5685 5683 5681 5680 5678 5677 5676 5674 5673 5671 5670 5668 5666 5665 5663 5661 5659 5656 5654 5651 5649
5712 5715 5716 5717 5716 5716 5716 5715 5714 5712 5709 5707 5705 5703 5700 5698 5695 5693 5691 5689 5687 5685 5683 5680 5678 5676 5674 5673 5671 5670 5668 5667 5665 5663 5661 5660 5658 5655 5653 5651 5648 5646 5644
5710 5712 5714 5714 5714 5713 5712 5711 5710 5709 5707 5705 5703 5700 5698 5696 5693 5690 5688 5686 5684 5682 5680 5678 5675 5673 5671 5669 5667 5666 5664 5662 5660 5659 5657 5655 5653 5651 5648 5645 5643 5641 5638
5706 5709 5711 5712 5712 5711 5710 5708 5707 5706 5705 5703 5701 5699 5696 5694 5692 5689 5686 5684 5682 5680 5677 5675 5673 5670 5668 5666 5664 5662 5660 5658 5656 5654 5652 5650 5648 5646 5643 5640 5638 5636 5633
5702 5705 5707 5708 5709 5708 5708 5706 5705 5704 5702 5700 5699 5697 5695 5693 5691 5688 5685 5683 5680 5678 5675 5672 5669 5666 5664 5662 5660 5658 5655 5654 5651 5649 5647 5645 5642 5640 5638 5635 5633 5630 5628
5698 5700 5702 5704 5704 5704 5704 5703 5702 5701 5700 5699 5697 5695 5693 5691 5689 5686 5684 5682 5679 5676 5672 5669 5665 5662 5659 5657 5655 5652 5651 5649 5646 5644 5642 5640 5637 5634 5632 5630 5627 5625 5622
5692 5694 5695 5697 5698 5699 5699 5699 5698 5698 5697 5696 5694 5693 5691 5689 5687 5684 5682 5680 5676 5673 5670 5667 5663 5659 5655 5652 5649 5646 5644 5642 5641 5639 5636 5633 5631 5628 5626 5623 5621 5618 5615
5684 5686 5688 5689 5690 5692 5692 5692 5691 5691 5692 5691 5691 5690 5688 5686 5684 5681 5679 5676 5673 5669 5666 5663 5659 5655 5652 5648 5644 5641 5638 5636 5634 5632 5630 5627 5624 5622 5619 5616 5614 5611 5608
5674 5676 5678 5679 5681 5683 5683 5683 5683 5683 5685 5685 5685 5684 5683 5681 5679 5677 5675 5672 5669 5665 5663 5659 5655 5650 5646 5641 5635 5631 5630 5628 5626 5625 5622 5620 5617 5615 5612 5609 5607 5604 5601
5664 5666 5668 5670 5672 5674 5676 5677 5677 5678 5679 5679 5679 5679 5678 5676 5674 5672 5670 5667 5664 5661 5657 5654 5649 5645 5641 5634 5628 5621 5618 5619 5619 5618 5614 5612 5610 5607 5605 5602 5599 5596 5594
5654 5656 5659 5660 5663 5666 5668 5669 5670 5670 5670 5670 5671 5671 5671 5670 5668 5666 5665 5662 5659 5656 5652 5649 5645 5639 5634 5628 5623 5616 5610 5613 5610 5608 5606 5606 5603 5599 5597 5594 5591 5588 5585
5645 5647 5650 5652 5654 5656 5659 5660 5660 5659 5659 5660 5661 5662 5662 5662 5661 5660 5658 5656 5653 5651 5647 5644 5640 5635 5629 5623 5615 5611 5609 5607 5599 5599 5597 5595 5593 5591 5589 5586 5583 5580 5577
5636 5638 5641 5643 5644 5646 5648 5649 5649 5649 5649 5650 5651 5652 5653 5653 5653 5652 5650 5649 5646 5644 5641 5638 5634 5629 5624 5619 5612 5604 5598 5593 5590 5587 5587 5585 5580 5582 5580 5577 5575 5572 5569
5626 5629 5631 5633 5634 5635 5637 5638 5638 5638 5639 5640 5641 5641 5642 5642 5642 5642 5641 5640 5639 5636 5634 5631 5628 5623 5619 5614 5608 5600 5593 5587 5584 5577 5575 5573 5569 5569 5568 5567 5565 5564 5560